| time (UTC) | temp F | wind direction | speed MPH | gust MPH | rain 1hr in | rain 24hr in | rain mn in | humidity % | barometer mb |
| 20260507043025 | 38 | 74 | 5.0 | 9.0 | 0.00 | 0.00 | 0.00 | 72 | 1013.0 |
| 20260507041518 | 37 | 55 | 3.0 | 6.0 | 0.00 | 0.00 | 0.00 | 73 | 1013.1 |
| 20260507040016 | 37 | 71 | 4.0 | 8.0 | 0.00 | 0.00 | 0.00 | 72 | 1013.2 |
| 20260507034529 | 37 | 44 | 6.0 | 12.0 | 0.00 | 0.00 | 0.00 | 72 | 1013.2 |
| 20260507033025 | 38 | 53 | 9.0 | 12.0 | 0.00 | 0.00 | 0.00 | 70 | 1013.2 |
| 20260507031513 | 38 | 33 | 9.0 | 15.0 | 0.00 | 0.00 | 0.00 | 70 | 1013.4 |
| 20260507030013 | 38 | 29 | 11.0 | 14.0 | 0.00 | 0.00 | 0.00 | 69 | 1013.4 |
| 20260507024512 | 38 | 31 | 10.0 | 14.0 | 0.00 | 0.00 | 0.00 | 70 | 1013.4 |
| 20260507023019 | 38 | 20 | 11.0 | 15.0 | 0.00 | 0.00 | 0.00 | 71 | 1013.2 |
| 20260507021508 | 38 | 28 | 12.0 | 15.0 | 0.00 | 0.00 | 0.00 | 72 | 1013.0 |
| 20260507020008 | 38 | 38 | 6.0 | 11.0 | 0.00 | 0.00 | 0.00 | 74 | 1012.8 |
| 20260507014511 | 38 | 59 | 5.0 | 9.0 | 0.00 | 0.00 | 0.00 | 72 | 1012.7 |
| 20260507013006 | 39 | 67 | 5.0 | 8.0 | 0.00 | 0.00 | 0.00 | 72 | 1012.5 |
| 20260507011506 | 39 | 99 | 4.0 | 7.0 | 0.00 | 0.00 | 0.00 | 71 | 1012.5 |
| 20260507010006 | 39 | 110 | 4.0 | 7.0 | 0.00 | 0.00 | 0.00 | 70 | 1012.4 |
| 20260507004504 | 39 | 86 | 4.0 | 7.0 | 0.00 | 0.00 | 0.00 | 68 | 1012.5 |
| 20260507003004 | 39 | 122 | 5.0 | 8.0 | 0.00 | 0.00 | 0.00 | 67 | 1012.4 |
| 20260507001504 | 39 | 103 | 6.0 | 9.0 | 0.00 | 0.00 | 0.00 | 67 | 1012.3 |
| 20260507000007 | 40 | 136 | 5.0 | 9.0 | 0.00 | 0.00 | 0.00 | 67 | 1012.2 |
| 20260506234502 | 40 | 109 | 4.0 | 9.0 | 0.00 | 0.00 | 0.00 | 67 | 1012.2 |
| 20260506233001 | 40 | 114 | 7.0 | 10.0 | 0.00 | 0.00 | 0.00 | 65 | 1012.2 |
| 20260506231501 | 40 | 119 | 6.0 | 10.0 | 0.00 | 0.00 | 0.00 | 66 | 1012.2 |
| 20260506230107 | 40 | 121 | 7.0 | 12.0 | 0.00 | 0.00 | 0.00 | 65 | 1012.5 |
| 20260506224600 | 40 | 116 | 4.0 | 10.0 | 0.00 | 0.00 | 0.00 | 65 | 1012.5 |
| 20260506223105 | 40 | 109 | 4.0 | 11.0 | 0.00 | 0.00 | 0.00 | 64 | 1012.5 |
| 20260506221559 | 40 | 103 | 8.0 | 11.0 | 0.00 | 0.00 | 0.00 | 64 | 1012.5 |
| 20260506220058 | 40 | 111 | 8.0 | 13.0 | 0.00 | 0.00 | 0.00 | 63 | 1012.6 |
| 20260506214604 | 40 | 84 | 9.0 | 12.0 | 0.00 | 0.00 | 0.00 | 63 | 1012.5 |
| 20260506213056 | 40 | 86 | 8.0 | 12.0 | 0.00 | 0.00 | 0.00 | 62 | 1012.4 |
| 20260506211604 | 41 | 113 | 8.0 | 12.0 | 0.00 | 0.00 | 0.00 | 65 | 1012.2 |
| 20260506210056 | 41 | 73 | 8.0 | 12.0 | 0.00 | 0.00 | 0.00 | 64 | 1012.2 |
| 20260506204554 | 42 | 98 | 10.0 | 14.0 | 0.00 | 0.00 | 0.00 | 63 | 1012.3 |
| 20260506203052 | 43 | 63 | 8.0 | 14.0 | 0.00 | 0.00 | 0.00 | 65 | 1012.0 |
| 20260506201552 | 42 | 76 | 9.0 | 15.0 | 0.00 | 0.00 | 0.00 | 64 | 1012.1 |
| 20260506194556 | 43 | 112 | 10.0 | 15.0 | 0.00 | 0.00 | 0.00 | 65 | 1012.1 |
| 20260506193054 | 45 | 71 | 11.0 | 15.0 | 0.00 | 0.00 | 0.00 | 67 | 1012.1 |
| 20260506191557 | 44 | 57 | 12.0 | 19.0 | 0.00 | 0.00 | 0.00 | 68 | 1012.3 |
| 20260506190048 | 44 | 59 | 7.0 | 15.0 | 0.00 | 0.00 | 0.00 | 67 | 1012.1 |
| 20260506184550 | 46 | 48 | 11.0 | 14.0 | 0.00 | 0.00 | 0.00 | 68 | 1012.3 |
| 20260506183052 | 44 | 65 | 7.0 | 12.0 | 0.00 | 0.00 | 0.00 | 66 | 1012.4 |
| 20260506181556 | 45 | 43 | 10.0 | 14.0 | 0.00 | 0.00 | 0.00 | 69 | 1012.4 |
| 20260506180105 | 46 | 84 | 7.0 | 13.0 | 0.00 | 0.00 | 0.00 | 68 | 1012.5 |
| 20260506174545 | 44 | 49 | 7.0 | 15.0 | 0.00 | 0.00 | 0.00 | 67 | 1012.3 |
| 20260506173056 | 44 | 65 | 9.0 | 14.0 | 0.00 | 0.00 | 0.00 | 66 | 1012.2 |
| 20260506171545 | 47 | 5 | 7.0 | 11.0 | 0.00 | 0.00 | 0.00 | 57 | 1012.3 |
| 20260506170042 | 47 | 330 | 3.0 | 9.0 | 0.00 | 0.00 | 0.00 | 57 | 1012.5 |
| 20260506164542 | 46 | 360 | 7.0 | 13.0 | 0.00 | 0.00 | 0.00 | 56 | 1012.5 |
| 20260506163041 | 46 | 355 | 2.0 | 9.0 | 0.00 | 0.00 | 0.00 | 61 | 1012.5 |
| 20260506161540 | 47 | 30 | 6.0 | 12.0 | 0.00 | 0.00 | 0.00 | 59 | 1012.4 |
| 20260506160038 | 47 | 355 | 11.0 | 16.0 | 0.00 | 0.00 | 0.00 | 63 | 1012.4 |
| 20260506154537 | 45 | 311 | 4.0 | 11.0 | 0.00 | 0.00 | 0.00 | 59 | 1012.4 |
| 20260506153036 | 47 | 355 | 3.0 | 9.0 | 0.00 | 0.00 | 0.00 | 58 | 1012.4 |
| 20260506151534 | 44 | 314 | 7.0 | 12.0 | 0.00 | 0.00 | 0.00 | 62 | 1012.4 |
| 20260506150032 | 45 | 290 | 5.0 | 12.0 | 0.00 | 0.00 | 0.00 | 60 | 1012.2 |
| 20260506144538 | 45 | 11 | 6.0 | 13.0 | 0.00 | 0.00 | 0.00 | 61 | 1012.1 |
| 20260506143031 | 45 | 342 | 2.0 | 12.0 | 0.00 | 0.00 | 0.00 | 62 | 1011.9 |
| 20260506141533 | 44 | 11 | 10.0 | 15.0 | 0.00 | 0.00 | 0.00 | 61 | 1011.7 |
| 20260506140023 | 44 | 323 | 7.0 | 14.0 | 0.00 | 0.00 | 0.00 | 64 | 1011.5 |
| 20260506134518 | 43 | 342 | 7.0 | 14.0 | 0.00 | 0.00 | 0.00 | 66 | 1011.5 |
| 20260506133017 | 43 | 345 | 3.0 | 12.0 | 0.00 | 0.00 | 0.00 | 64 | 1011.5 |
| 20260506131510 | 41 | 350 | 9.0 | 19.0 | 0.00 | 0.00 | 0.00 | 65 | 1011.2 |
| 20260506130010 | 41 | 340 | 5.0 | 14.0 | 0.00 | 0.00 | 0.00 | 66 | 1011.2 |
| 20260506124506 | 40 | 19 | 10.0 | 16.0 | 0.00 | 0.00 | 0.00 | 65 | 1011.0 |
| 20260506123005 | 39 | 31 | 9.0 | 20.0 | 0.00 | 0.00 | 0.00 | 67 | 1010.7 |
| 20260506121501 | 38 | 5 | 13.0 | 19.0 | 0.00 | 0.00 | 0.00 | 68 | 1010.8 |
| 20260506120103 | 38 | 320 | 8.0 | 16.0 | 0.00 | 0.00 | 0.00 | 70 | 1010.7 |
| 20260506114555 | 38 | 343 | 8.0 | 13.0 | 0.00 | 0.00 | 0.00 | 70 | 1010.5 |
| 20260506113052 | 38 | 339 | 5.0 | 9.0 | 0.00 | 0.00 | 0.00 | 71 | 1010.7 |
| 20260506111548 | 37 | 333 | 4.0 | 10.0 | 0.00 | 0.00 | 0.00 | 72 | 1010.3 |
| 20260506110046 | 36 | 9 | 6.0 | 13.0 | 0.00 | 0.00 | 0.00 | 72 | 1009.6 |
| 20260506104547 | 36 | 347 | 6.0 | 11.0 | 0.00 | 0.00 | 0.00 | 72 | 1009.2 |
| 20260506103041 | 36 | 349 | 5.0 | 13.0 | 0.00 | 0.00 | 0.00 | 72 | 1008.9 |
| 20260506101539 | 36 | 24 | 5.0 | 12.0 | 0.00 | 0.00 | 0.00 | 73 | 1008.7 |
| 20260506100038 | 36 | 10 | 8.0 | 13.0 | 0.00 | 0.00 | 0.00 | 73 | 1008.4 |
| 20260506094537 | 36 | 13 | 5.0 | 10.0 | 0.00 | 0.00 | 0.00 | 73 | 1008.6 |
| 20260506093040 | 36 | 19 | 7.0 | 12.0 | 0.00 | 0.00 | 0.00 | 73 | 1008.6 |
| 20260506091534 | 36 | 355 | 7.0 | 12.0 | 0.00 | 0.00 | 0.00 | 74 | 1008.5 |
| 20260506090031 | 36 | 5 | 5.0 | 13.0 | 0.00 | 0.00 | 0.00 | 74 | 1008.9 |
| 20260506084535 | 37 | 355 | 7.0 | 12.0 | 0.00 | 0.00 | 0.00 | 75 | 1008.6 |
| 20260506083025 | 37 | 307 | 5.0 | 13.0 | 0.00 | 0.00 | 0.00 | 75 | 1008.7 |
| 20260506081522 | 38 | 355 | 8.0 | 15.0 | 0.00 | 0.00 | 0.00 | 76 | 1008.4 |
| 20260506073012 | 40 | 350 | 4.0 | 15.0 | 0.00 | 0.00 | 0.00 | 70 | 1008.2 |
| 20260506071511 | 40 | 355 | 6.0 | 14.0 | 0.00 | 0.00 | 0.00 | 68 | 1007.9 |
| 20260506061507 | 41 | 5 | 6.0 | 13.0 | 0.00 | 0.00 | 0.00 | 65 | 1007.3 |
| 20260506044601 | 40 | 11 | 5.0 | 10.0 | 0.00 | 0.00 | 0.00 | 74 | 1007.6 |